Theta_e
353 362 368 368 368 366 365 365 364 364 363 362 361 361 361 361 361 363 362 363 363 363 361 359 359 360 359 356 357 357 356 355 354 354 354 353 352 352 351 349 348 351 351
357 361 366 367 368 366 365 365 364 363 362 362 362 361 361 361 362 363 363 363 363 363 361 361 361 361 357 355 355 355 354 354 353 353 353 352 352 352 351 349 349 350 348
357 361 362 366 368 366 365 364 363 362 362 362 361 361 361 360 362 363 363 363 362 362 361 361 361 359 357 355 354 354 353 353 353 353 353 350 348 353 353 352 350 349 348
359 359 360 366 367 366 365 364 362 362 362 361 361 361 361 361 362 362 363 364 362 360 360 360 359 357 355 354 352 352 352 352 354 355 353 352 352 357 355 355 353 353 352
361 357 362 366 366 366 365 363 362 362 361 361 361 361 361 361 362 362 363 363 361 358 356 355 354 353 352 352 351 351 351 352 353 351 347 351 350 357 359 357 355 355 357
360 360 363 365 365 365 364 363 362 361 361 361 361 361 361 361 362 361 362 362 361 357 355 354 353 353 352 350 351 350 351 352 354 350 351 354 351 356 357 355 355 357 358
360 362 362 365 365 365 364 363 362 361 360 361 361 361 361 361 362 361 362 361 360 358 356 354 352 352 351 351 350 351 352 354 351 348 351 352 350 355 355 354 354 357 358
359 361 360 364 364 364 363 363 362 361 360 360 361 360 360 361 361 361 361 361 360 358 356 353 351 350 349 350 350 351 352 352 351 349 349 349 351 355 355 352 354 356 358
359 360 357 358 363 363 362 361 361 360 360 360 359 359 360 360 360 360 360 360 359 358 356 354 351 349 348 348 350 352 352 352 349 347 348 347 356 356 354 353 354 355 357
359 360 353 354 357 358 359 361 361 360 359 358 359 359 359 360 360 360 359 359 358 357 356 354 352 350 350 350 350 351 352 351 346 343 344 348 355 355 352 351 354 354 356
356 358 353 351 350 348 353 359 360 359 359 359 359 358 356 350 354 355 354 358 358 356 355 353 352 351 351 351 352 352 351 341 335 336 339 354 357 354 350 351 354 355 356
352 354 353 351 347 346 348 355 355 356 354 353 353 353 348 349 348 350 355 358 357 355 354 354 353 352 352 342 342 351 344 338 334 336 338 354 352 352 351 352 354 355 356
352 354 353 353 351 345 348 347 347 349 348 348 350 349 349 350 349 350 353 351 352 353 349 350 349 348 343 343 345 343 342 342 341 343 348 353 353 352 353 353 354 354 355
352 353 354 355 353 353 349 344 348 346 347 347 349 348 350 354 349 352 352 349 348 348 344 347 345 347 347 346 345 344 345 346 345 345 350 355 354 354 355 356 355 356 355
352 354 354 355 354 357 352 348 349 347 348 351 352 349 351 352 353 354 352 351 347 347 347 347 346 348 347 346 348 348 348 349 351 348 346 358 357 355 357 357 356 355 351
353 353 355 355 357 360 353 351 353 351 352 354 353 350 356 354 354 351 353 350 351 349 349 353 352 349 348 349 353 352 355 354 352 350 350 348 356 356 355 356 357 351 347
352 357 358 359 361 363 360 356 356 356 353 355 355 355 356 358 355 355 349 350 349 349 355 355 356 353 353 356 354 351 351 350 350 349 349 347 346 350 355 355 353 349 347
353 362 361 360 361 362 366 361 357 356 354 355 355 354 356 354 354 354 350 348 350 353 356 357 357 355 352 350 349 346 347 346 347 347 347 346 343 342 347 353 349 346 349
348 360 360 361 358 359 368 359 364 360 357 355 355 355 357 353 354 352 351 353 355 357 356 354 352 350 347 341 338 337 341 336 338 344 343 344 343 341 342 347 346 346 348
351 360 361 360 359 358 362 360 359 357 361 359 356 354 357 355 355 356 357 361 357 351 349 349 348 345 341 338 335 336 336 333 343 345 340 340 340 340 334 334 336 333 341
335 358 359 356 358 357 357 354 353 351 356 353 358 356 357 357 356 356 355 356 354 350 347 347 346 342 337 335 333 332 334 338 339 338 339 336 336 329 331 321 324 322 323
336 359 359 354 356 356 358 356 356 352 353 353 355 357 358 357 358 356 354 351 351 346 344 342 339 337 336 336 330 331 326 329 333 334 335 335 327 325 319 320 321 324 323
329 355 358 357 357 358 357 358 359 356 355 353 354 355 357 356 355 357 353 348 348 345 337 336 339 337 334 337 340 334 325 322 326 332 331 322 326 318 318 322 322 323 324
328 357 357 356 355 356 358 355 357 350 345 350 350 352 353 356 346 344 344 344 343 338 338 337 339 338 337 332 335 335 334 330 321 316 319 317 319 318 323 319 321 321 321
352 357 356 356 353 355 355 354 354 351 353 350 354 354 344 340 340 341 344 343 340 338 341 337 335 334 332 330 327 324 325 320 320 314 308 311 318 320 318 318 318 318 320
355 356 357 356 351 352 353 350 349 348 351 350 350 347 341 339 341 341 341 341 337 336 335 335 335 331 328 327 323 321 318 315 313 313 312 313 312 314 316 317 318 318 318
Wind_Speed
16 16 17 15 16 17 17 16 14 14 14 15 15 14 14 14 14 13 13 14 12 11 11 10 8 6 6 7 9 9 9 9 8 8 9 9 8 7 4 2 2 2 6
22 18 16 16 17 17 17 16 15 14 14 14 15 15 13 13 13 12 13 12 12 11 11 10 9 8 7 6 6 6 6 6 4 4 5 6 7 7 4 1 2 5 2
22 18 17 16 17 17 17 16 15 14 14 14 15 14 13 13 13 11 12 11 11 10 11 10 9 8 6 5 5 5 4 2 2 4 5 6 8 10 9 4 2 2 2
21 17 16 18 17 18 17 16 15 15 14 14 14 14 13 12 12 11 11 11 10 10 10 9 8 7 6 5 4 3 2 2 5 6 6 10 10 12 8 4 3 3 5
18 16 15 19 17 18 17 16 15 15 15 15 14 14 14 12 11 10 10 10 10 10 9 8 7 6 5 4 3 2 2 4 7 9 9 10 10 10 8 5 4 6 7
18 15 18 17 18 17 17 16 15 14 15 15 15 13 13 13 11 9 9 8 9 8 8 7 6 5 3 2 1 1 3 6 9 9 10 6 8 12 9 6 4 7 8
19 16 16 17 18 18 18 17 17 16 15 14 14 14 13 12 11 10 9 8 8 7 7 5 4 3 2 1 1 2 4 7 7 10 12 10 10 12 10 7 1 6 9
19 18 16 16 16 17 17 16 16 15 15 14 14 14 14 13 12 11 9 8 7 7 5 4 3 2 1 1 2 3 5 7 9 11 12 7 9 12 9 6 3 5 8
19 17 15 15 14 16 15 15 15 14 14 13 13 13 13 12 12 11 9 8 6 5 5 3 2 1 0 2 4 5 6 7 7 7 11 2 11 9 7 3 3 5 7
18 17 16 13 13 12 13 14 15 14 13 13 13 13 12 12 11 10 9 8 6 5 4 3 2 2 3 5 8 9 9 9 8 10 9 1 10 9 7 4 2 5 9
16 16 15 14 13 12 13 12 15 14 14 13 12 12 10 7 8 10 9 12 8 6 5 4 4 4 7 10 12 12 10 5 9 8 6 14 13 9 6 3 0 5 9
17 18 16 14 13 12 10 12 10 11 8 8 9 10 7 7 8 11 11 11 9 7 6 7 8 9 8 7 6 12 5 9 9 7 4 12 11 8 4 3 4 6 8
20 16 20 16 12 14 12 8 6 6 6 5 8 8 7 6 6 6 6 6 5 8 6 8 7 6 8 7 2 6 9 11 6 3 6 10 8 8 7 7 7 6 7
18 20 22 21 14 10 11 9 8 7 7 6 6 8 5 3 5 4 7 8 6 5 7 7 6 7 7 3 6 6 6 4 3 3 2 9 9 10 10 8 6 6 6
18 18 23 21 16 11 13 10 9 8 7 7 6 6 4 2 4 2 3 1 5 5 5 5 5 4 4 6 8 7 2 5 6 3 3 10 10 11 9 5 7 4 4
17 16 24 21 16 12 11 12 9 9 9 7 9 7 5 3 4 3 2 2 3 2 1 4 2 3 4 5 3 5 5 4 6 7 4 4 6 9 7 8 6 4 5
11 18 24 24 18 12 13 11 8 8 8 6 7 10 6 4 5 2 3 4 4 4 1 3 2 3 2 3 4 5 5 6 5 6 5 4 5 5 5 6 5 3 8
3 15 15 16 16 14 10 8 7 8 7 5 8 8 6 5 7 4 5 5 5 3 3 1 2 2 3 3 4 4 5 5 8 8 3 3 3 4 5 4 3 8 12
5 17 20 19 16 14 9 6 6 10 6 7 8 9 7 7 8 5 5 3 3 6 6 5 5 5 4 5 5 5 5 6 10 5 6 6 7 6 6 6 6 11 8
5 17 18 16 16 14 9 5 6 7 4 5 6 9 8 5 6 3 1 6 6 5 4 5 4 4 5 7 6 5 5 8 6 6 7 7 7 9 9 7 6 8 11
5 17 17 17 15 12 10 9 8 8 5 6 6 11 9 5 6 4 2 8 4 5 5 5 2 4 4 4 4 4 3 9 5 6 5 5 7 9 8 10 6 7 7
8 15 19 18 17 12 10 9 8 9 6 6 8 8 7 6 6 3 3 7 5 6 4 5 6 2 2 3 3 4 3 5 6 6 4 5 8 6 8 8 7 7 7
14 18 19 19 18 15 13 9 6 7 5 7 7 6 5 7 6 2 9 8 5 5 6 4 2 1 3 2 4 2 3 3 7 1 5 8 5 5 6 5 9 9 9
17 20 18 17 17 14 16 9 8 7 9 7 7 5 4 7 14 11 10 8 7 6 4 3 2 5 4 5 4 5 3 2 3 6 3 7 6 6 7 9 7 10 10
21 20 20 20 21 16 14 9 6 7 6 7 8 11 13 11 11 8 7 8 5 6 3 8 8 8 6 6 5 5 3 3 3 2 7 8 5 6 9 8 7 5 7
23 20 19 19 17 13 13 12 5 8 8 9 10 9 8 7 7 9 7 9 8 7 8 6 5 6 5 5 5 5 4 4 4 4 6 8 8 7 8 8 7 5 6
Wind_Direction
128 130 120 127 128 132 134 134 133 132 129 127 127 119 114 112 112 108 111 109 112 118 120 121 119 103 80 63 60 60 64 69 72 73 80 92 99 97 88 62 337 146 123
134 137 125 131 135 138 139 139 138 137 133 131 129 125 123 121 121 116 115 111 117 120 121 119 119 117 103 88 82 77 75 74 79 104 133 144 145 143 144 178 324 48 79
133 137 137 133 138 142 142 140 136 136 135 135 132 128 128 126 124 117 114 112 118 120 118 116 116 116 107 95 88 85 90 118 190 211 214 210 176 176 165 183 258 320 328
134 139 142 138 141 142 141 140 139 138 137 133 130 129 128 125 125 120 120 118 118 120 119 120 120 114 112 117 124 135 166 225 257 256 244 236 212 178 161 177 215 276 289
134 144 137 139 142 141 140 140 140 139 137 133 131 132 130 127 127 126 124 117 119 119 117 116 112 120 136 141 147 170 242 275 281 284 259 277 71 145 156 187 231 246 244
135 147 138 140 137 138 140 137 134 135 135 134 135 134 134 131 130 128 120 115 117 119 121 124 133 142 143 131 131 295 303 306 306 284 269 260 88 148 162 186 251 295 306
144 136 139 138 137 140 141 140 136 136 136 136 137 136 137 131 131 127 121 128 128 131 133 136 127 114 106 86 318 315 309 303 293 289 289 268 128 144 159 143 148 272 268
145 135 144 137 139 139 140 140 134 134 135 138 138 141 138 140 139 136 135 130 135 137 138 132 117 109 74 345 308 298 291 297 308 307 309 332 125 146 139 135 178 256 271
138 135 147 148 139 132 129 130 126 128 132 137 140 140 140 141 138 133 134 131 145 144 150 141 142 153 180 294 276 272 277 289 295 290 294 11 149 144 122 129 232 261 278
143 137 147 150 153 148 134 124 121 127 133 136 139 141 142 138 138 136 139 145 162 166 171 166 199 258 268 249 247 243 242 251 253 257 260 107 141 154 159 181 268 298 283
142 129 148 151 157 159 139 133 122 132 135 136 139 141 143 164 169 157 194 155 170 179 187 201 218 238 247 249 244 239 242 246 249 246 244 158 174 168 171 171 0 283 291
148 146 154 153 161 155 155 141 144 147 158 171 171 165 180 167 178 181 145 158 174 188 208 218 224 231 242 250 231 228 231 244 248 248 251 158 173 168 152 203 232 250 274
158 157 152 152 164 168 132 152 153 155 159 170 172 175 213 166 175 147 149 170 184 203 211 205 213 227 229 244 69 189 218 231 238 284 110 158 170 180 196 219 238 261 281
164 160 150 154 161 171 140 155 155 160 164 168 167 187 218 181 169 197 172 180 192 169 217 184 205 221 222 309 265 260 257 275 353 331 35 170 197 205 210 218 231 257 287
163 160 148 152 161 154 148 157 164 168 170 163 150 190 214 165 169 167 287 71 186 174 199 197 228 173 200 228 236 244 330 14 305 293 312 197 211 221 219 222 239 271 293
159 156 147 151 155 157 154 160 170 163 173 175 159 180 179 198 155 188 250 250 268 258 227 211 220 183 221 255 56 57 324 12 330 327 324 323 244 221 221 224 246 249 307
146 134 160 139 151 154 143 158 166 152 162 177 160 156 171 191 154 205 202 222 230 211 233 315 280 238 339 331 36 30 2 351 322 304 300 316 357 332 210 238 239 259 271
184 134 124 137 148 144 139 157 169 153 162 180 147 149 190 176 155 214 213 202 232 184 185 44 31 56 38 350 31 21 345 337 304 295 350 28 331 334 356 260 201 253 263
222 133 140 144 147 143 139 151 189 155 179 177 145 149 180 178 162 184 242 187 111 51 38 42 48 5 46 26 3 345 348 317 293 297 16 349 17 8 358 17 288 284 309
213 140 143 146 141 145 145 178 186 158 187 141 142 147 155 177 161 210 171 64 51 65 59 48 58 19 39 26 342 334 291 281 282 27 17 3 6 21 352 339 338 357 348
200 145 154 148 148 148 160 189 168 162 183 147 117 140 152 171 148 181 160 107 85 70 54 52 8 42 48 9 346 314 295 272 71 34 27 355 24 354 348 354 341 343 350
182 150 149 165 155 159 168 192 170 165 162 146 132 138 157 146 121 143 292 110 101 113 100 45 36 54 243 235 221 239 281 305 13 360 11 357 1 6 337 336 339 349 316
187 155 158 158 165 156 180 196 154 155 149 125 133 140 133 131 151 169 65 75 77 40 72 84 27 13 337 315 14 11 356 2 333 45 351 8 335 335 322 324 353 327 304
183 154 152 155 163 161 187 191 158 158 152 136 139 125 131 91 77 76 74 76 71 98 104 99 49 343 11 359 340 33 26 315 341 326 5 337 336 323 11 352 348 341 342
152 149 156 164 158 171 166 158 150 146 139 144 121 111 84 83 87 99 104 102 106 86 83 60 45 24 29 14 358 355 340 333 349 295 310 333 332 2 2 329 316 313 313
145 154 158 163 153 160 154 130 162 132 130 129 134 117 113 109 114 102 115 90 84 77 66 57 66 57 6 50 4 351 352 341 329 351 328 335 346 345 321 302 298 328 20